Year,Month,Day,Hour,Minute,Value (Times are PST for temperature in C)
2020,05,09,00,00,14.80
2020,05,09,00,01,14.70
2020,05,09,00,02,14.70
2020,05,09,00,03,14.70
2020,05,09,00,04,14.70
2020,05,09,00,05,14.60
2020,05,09,00,06,14.60
2020,05,09,00,07,14.60
2020,05,09,00,08,14.60
2020,05,09,00,09,14.60
2020,05,09,00,10,14.50
2020,05,09,00,11,14.50
2020,05,09,00,12,14.40
2020,05,09,00,13,14.40
2020,05,09,00,14,14.40
2020,05,09,00,15,14.40
2020,05,09,00,16,14.40
2020,05,09,00,17,14.30
2020,05,09,00,18,14.30
2020,05,09,00,19,14.30
2020,05,09,00,20,14.30
2020,05,09,00,21,14.30
2020,05,09,00,22,14.30
2020,05,09,00,23,14.20
2020,05,09,00,24,14.20
2020,05,09,00,25,14.20
2020,05,09,00,26,14.20
2020,05,09,00,27,14.20
2020,05,09,00,28,14.20
2020,05,09,00,29,14.10
2020,05,09,00,30,14.10
2020,05,09,00,31,14.10
2020,05,09,00,32,14.10
2020,05,09,00,33,14.00
2020,05,09,00,34,13.90
2020,05,09,00,35,13.90
2020,05,09,00,36,13.90
2020,05,09,00,37,13.90
2020,05,09,00,38,13.80
2020,05,09,00,39,13.80
2020,05,09,00,40,13.80
2020,05,09,00,41,13.80
2020,05,09,00,42,13.80
2020,05,09,00,43,13.80
2020,05,09,00,44,13.70
2020,05,09,00,45,13.70
2020,05,09,00,46,13.70
2020,05,09,00,47,13.70
2020,05,09,00,48,13.70
2020,05,09,00,49,13.70
2020,05,09,00,50,13.60
2020,05,09,00,51,13.60
2020,05,09,00,52,13.60
2020,05,09,00,53,13.60
2020,05,09,00,54,13.70
2020,05,09,00,55,13.70
2020,05,09,00,56,13.70
2020,05,09,00,57,13.80
2020,05,09,00,58,13.80
2020,05,09,00,59,13.80
2020,05,09,01,00,13.90
2020,05,09,01,01,13.90
2020,05,09,01,02,13.90
2020,05,09,01,03,13.90
2020,05,09,01,04,14.00
2020,05,09,01,05,14.00
2020,05,09,01,06,14.00
2020,05,09,01,07,14.00
2020,05,09,01,08,14.10
2020,05,09,01,09,14.10
2020,05,09,01,10,14.20
2020,05,09,01,11,14.20
2020,05,09,01,12,14.20
2020,05,09,01,13,14.30
2020,05,09,01,14,14.30
2020,05,09,01,15,14.30
2020,05,09,01,16,14.40
2020,05,09,01,17,14.40
2020,05,09,01,18,14.40
2020,05,09,01,19,14.40
2020,05,09,01,20,14.50
2020,05,09,01,21,14.50
2020,05,09,01,22,14.50
2020,05,09,01,23,14.50
2020,05,09,01,24,14.50
2020,05,09,01,25,14.50
2020,05,09,01,26,14.50
2020,05,09,01,27,14.50
2020,05,09,01,28,14.50
2020,05,09,01,29,14.50
2020,05,09,01,30,14.50
2020,05,09,01,31,14.60
2020,05,09,01,32,14.50
2020,05,09,01,33,14.50
2020,05,09,01,34,14.50
2020,05,09,01,35,14.50
2020,05,09,01,36,14.50
2020,05,09,01,37,14.40
2020,05,09,01,38,14.40
2020,05,09,01,39,14.40
2020,05,09,01,40,14.40
2020,05,09,01,41,14.40
2020,05,09,01,42,14.40
2020,05,09,01,43,14.50
2020,05,09,01,44,14.50
2020,05,09,01,45,14.50
2020,05,09,01,46,14.50
2020,05,09,01,47,14.60
2020,05,09,01,48,14.60
2020,05,09,01,49,14.60
2020,05,09,01,50,14.60
2020,05,09,01,51,14.70
2020,05,09,01,52,14.80
2020,05,09,01,53,14.90
2020,05,09,01,54,15.00
2020,05,09,01,55,15.00
2020,05,09,01,56,15.00
2020,05,09,01,57,15.00
2020,05,09,01,58,15.00
2020,05,09,01,59,15.10
2020,05,09,02,00,15.10
2020,05,09,02,01,15.20
2020,05,09,02,02,15.20
2020,05,09,02,03,15.20
2020,05,09,02,04,15.20
2020,05,09,02,05,15.10
2020,05,09,02,06,15.00
2020,05,09,02,07,15.00
2020,05,09,02,08,15.00
2020,05,09,02,09,14.90
2020,05,09,02,10,14.80
2020,05,09,02,11,14.80
2020,05,09,02,12,14.80
2020,05,09,02,13,14.80
2020,05,09,02,14,14.80
2020,05,09,02,15,14.80
2020,05,09,02,16,14.80
2020,05,09,02,17,14.90
2020,05,09,02,18,14.90
2020,05,09,02,19,15.00
2020,05,09,02,20,15.00
2020,05,09,02,21,15.00
2020,05,09,02,22,15.00
2020,05,09,02,23,15.10
2020,05,09,02,24,15.20
2020,05,09,02,25,15.20
2020,05,09,02,26,15.20
2020,05,09,02,27,15.20
2020,05,09,02,28,15.20
2020,05,09,02,29,15.20
2020,05,09,02,30,15.10
2020,05,09,02,31,15.00
2020,05,09,02,32,15.00
2020,05,09,02,33,15.00
2020,05,09,02,34,15.00
2020,05,09,02,35,15.00
2020,05,09,02,36,15.00
2020,05,09,02,37,14.90
2020,05,09,02,38,14.90
2020,05,09,02,39,14.80
2020,05,09,02,40,14.80
2020,05,09,02,41,14.60
2020,05,09,02,42,14.60
2020,05,09,02,43,14.50
2020,05,09,02,44,14.40
2020,05,09,02,45,14.40
2020,05,09,02,46,14.30
2020,05,09,02,47,14.30
2020,05,09,02,48,14.20
2020,05,09,02,49,14.20
2020,05,09,02,50,14.20
2020,05,09,02,51,14.20
2020,05,09,02,52,14.20
2020,05,09,02,53,14.20
2020,05,09,02,54,14.20
2020,05,09,02,55,14.20
2020,05,09,02,56,14.20
2020,05,09,02,57,14.20
2020,05,09,02,58,14.20
2020,05,09,02,59,14.30
2020,05,09,03,00,14.30
2020,05,09,03,01,14.30
2020,05,09,03,02,14.30
2020,05,09,03,03,14.30
2020,05,09,03,04,14.40
2020,05,09,03,05,14.40
2020,05,09,03,06,14.40
2020,05,09,03,07,14.50
2020,05,09,03,08,14.60
2020,05,09,03,09,14.60
2020,05,09,03,10,14.70
2020,05,09,03,11,14.70
2020,05,09,03,12,14.70
2020,05,09,03,13,14.70
2020,05,09,03,14,14.70
2020,05,09,03,15,14.70
2020,05,09,03,16,14.70
2020,05,09,03,17,14.70
2020,05,09,03,18,14.70
2020,05,09,03,19,14.70
2020,05,09,03,20,14.70
2020,05,09,03,21,14.70
2020,05,09,03,22,14.80
2020,05,09,03,23,14.80
2020,05,09,03,24,14.90
2020,05,09,03,25,14.90
2020,05,09,03,26,15.00
2020,05,09,03,27,15.00
2020,05,09,03,28,15.00
2020,05,09,03,29,15.00
2020,05,09,03,30,15.10
2020,05,09,03,31,15.10
2020,05,09,03,32,15.20
2020,05,09,03,33,15.20
2020,05,09,03,34,15.20
2020,05,09,03,35,15.20
2020,05,09,03,36,15.20
2020,05,09,03,37,15.20
2020,05,09,03,38,15.20
2020,05,09,03,39,15.10
2020,05,09,03,40,15.10
2020,05,09,03,41,15.00
2020,05,09,03,42,15.00
2020,05,09,03,43,15.00
2020,05,09,03,44,15.00
2020,05,09,03,45,15.00
2020,05,09,03,46,15.00
2020,05,09,03,47,14.90
2020,05,09,03,48,14.80
2020,05,09,03,49,14.80
2020,05,09,03,50,14.80
2020,05,09,03,51,14.80
2020,05,09,03,52,14.90
2020,05,09,03,53,14.90
2020,05,09,03,54,14.90
2020,05,09,03,55,15.00
2020,05,09,03,56,15.00
2020,05,09,03,57,15.00
2020,05,09,03,58,15.00
2020,05,09,03,59,15.00
2020,05,09,04,00,15.00
2020,05,09,04,01,15.00
2020,05,09,04,02,15.10
2020,05,09,04,03,15.10
2020,05,09,04,04,15.00
2020,05,09,04,05,15.00
2020,05,09,04,06,15.00
2020,05,09,04,07,15.00
2020,05,09,04,08,15.10
2020,05,09,04,09,15.00
2020,05,09,04,10,15.00
2020,05,09,04,11,15.00
2020,05,09,04,12,15.00
2020,05,09,04,13,15.00
2020,05,09,04,14,15.00
2020,05,09,04,15,15.00
2020,05,09,04,16,15.00
2020,05,09,04,17,15.00
2020,05,09,04,18,15.00
2020,05,09,04,19,15.00
2020,05,09,04,20,15.00
2020,05,09,04,21,15.00
2020,05,09,04,22,14.90
2020,05,09,04,23,14.90
2020,05,09,04,24,14.90
2020,05,09,04,25,14.90
2020,05,09,04,26,14.90
2020,05,09,04,27,14.90
2020,05,09,04,28,14.90
2020,05,09,04,29,14.90
2020,05,09,04,30,14.90
2020,05,09,04,31,15.00
2020,05,09,04,32,15.00
2020,05,09,04,33,15.00
2020,05,09,04,34,15.00
2020,05,09,04,35,15.00
2020,05,09,04,36,15.10
2020,05,09,04,37,15.10
2020,05,09,04,38,15.10
2020,05,09,04,39,15.20
2020,05,09,04,40,15.20
2020,05,09,04,41,15.20
2020,05,09,04,42,15.20
2020,05,09,04,43,15.20
2020,05,09,04,44,15.20
2020,05,09,04,45,15.20
2020,05,09,04,46,15.20
2020,05,09,04,47,15.20
2020,05,09,04,48,15.30
2020,05,09,04,49,15.30
2020,05,09,04,50,15.20
2020,05,09,04,51,15.20
2020,05,09,04,52,15.20
2020,05,09,04,53,15.20
2020,05,09,04,54,15.10
2020,05,09,04,55,15.00
2020,05,09,04,56,15.00
2020,05,09,04,57,15.00
2020,05,09,04,58,15.00
2020,05,09,04,59,15.00
2020,05,09,05,00,14.90
2020,05,09,05,01,14.90
2020,05,09,05,02,15.00
2020,05,09,05,03,15.00
2020,05,09,05,04,15.00
2020,05,09,05,05,15.00
2020,05,09,05,06,15.00
2020,05,09,05,07,15.00
2020,05,09,05,08,15.10
2020,05,09,05,09,15.10
2020,05,09,05,10,15.10
2020,05,09,05,11,15.10
2020,05,09,05,12,15.10
2020,05,09,05,13,15.00
2020,05,09,05,14,15.10
2020,05,09,05,15,15.10
2020,05,09,05,16,15.10
2020,05,09,05,17,15.20
2020,05,09,05,18,15.20
2020,05,09,05,19,15.30
2020,05,09,05,20,15.30
2020,05,09,05,21,15.40
2020,05,09,05,22,15.40
2020,05,09,05,23,15.40
2020,05,09,05,24,15.50
2020,05,09,05,25,15.50
2020,05,09,05,26,15.50
2020,05,09,05,27,15.40
2020,05,09,05,28,15.40
2020,05,09,05,29,15.40
2020,05,09,05,30,15.40
2020,05,09,05,31,15.30
2020,05,09,05,32,15.30
2020,05,09,05,33,15.30
2020,05,09,05,34,15.20
2020,05,09,05,35,15.20
2020,05,09,05,36,15.20
2020,05,09,05,37,15.10
2020,05,09,05,38,15.10
2020,05,09,05,39,15.10
2020,05,09,05,40,15.10
2020,05,09,05,41,15.10
2020,05,09,05,42,15.10
2020,05,09,05,43,15.10
2020,05,09,05,44,15.00
2020,05,09,05,45,15.00
2020,05,09,05,46,15.00
2020,05,09,05,47,15.00
2020,05,09,05,48,15.00
2020,05,09,05,49,15.00
2020,05,09,05,50,15.00
2020,05,09,05,51,15.00
2020,05,09,05,52,15.00
2020,05,09,05,53,15.00
2020,05,09,05,54,15.00
2020,05,09,05,55,15.00
2020,05,09,05,56,15.00
2020,05,09,05,57,14.90
2020,05,09,05,58,14.90
2020,05,09,05,59,14.90
2020,05,09,06,00,14.90
2020,05,09,06,01,14.90
2020,05,09,06,02,14.90
2020,05,09,06,03,14.90
2020,05,09,06,04,14.80
2020,05,09,06,05,14.80
2020,05,09,06,06,14.80
2020,05,09,06,07,14.90
2020,05,09,06,08,14.90
2020,05,09,06,09,14.90
2020,05,09,06,10,14.90
2020,05,09,06,11,14.90
2020,05,09,06,12,14.90
2020,05,09,06,13,14.90
2020,05,09,06,14,14.90
2020,05,09,06,15,14.90
2020,05,09,06,16,14.90
2020,05,09,06,17,14.90
2020,05,09,06,18,14.90
2020,05,09,06,19,14.90
2020,05,09,06,20,14.90
2020,05,09,06,21,14.90
2020,05,09,06,22,14.90
2020,05,09,06,23,14.90
2020,05,09,06,24,14.90
2020,05,09,06,25,14.90
2020,05,09,06,26,14.90
2020,05,09,06,27,14.90
2020,05,09,06,28,14.90
2020,05,09,06,29,14.90
2020,05,09,06,30,15.00
2020,05,09,06,31,15.00
2020,05,09,06,32,15.00
2020,05,09,06,33,15.00
2020,05,09,06,34,15.00
2020,05,09,06,35,15.00
2020,05,09,06,36,15.00
2020,05,09,06,37,15.00
2020,05,09,06,38,15.00
2020,05,09,06,39,15.00
2020,05,09,06,40,15.00
2020,05,09,06,41,15.00
2020,05,09,06,42,15.00
2020,05,09,06,43,15.00
2020,05,09,06,44,15.00
2020,05,09,06,45,15.00
2020,05,09,06,46,15.00
2020,05,09,06,47,15.00
2020,05,09,06,48,15.00
2020,05,09,06,49,15.00
2020,05,09,06,50,15.10
2020,05,09,06,51,15.20
2020,05,09,06,52,15.20
2020,05,09,06,53,15.20
2020,05,09,06,54,15.30
2020,05,09,06,55,15.30
2020,05,09,06,56,15.30
2020,05,09,06,57,15.30
2020,05,09,06,58,15.40
2020,05,09,06,59,15.40
2020,05,09,07,00,15.50
2020,05,09,07,01,15.50
2020,05,09,07,02,15.60
2020,05,09,07,03,15.60
2020,05,09,07,04,15.70
2020,05,09,07,05,15.70
2020,05,09,07,06,15.80
2020,05,09,07,07,15.90
2020,05,09,07,08,15.90
2020,05,09,07,09,16.00
2020,05,09,07,10,16.10
2020,05,09,07,11,16.10
2020,05,09,07,12,16.20
2020,05,09,07,13,16.20
2020,05,09,07,14,16.20
2020,05,09,07,15,16.20
2020,05,09,07,16,16.20
2020,05,09,07,17,16.20
2020,05,09,07,18,16.20
2020,05,09,07,19,16.30
2020,05,09,07,20,16.30
2020,05,09,07,21,16.30
2020,05,09,07,22,16.30
2020,05,09,07,23,16.30
2020,05,09,07,24,16.30
2020,05,09,07,25,16.30
2020,05,09,07,26,16.30
2020,05,09,07,27,16.30
2020,05,09,07,28,16.30
2020,05,09,07,29,16.30
2020,05,09,07,30,16.30
2020,05,09,07,31,16.30
2020,05,09,07,32,16.30
2020,05,09,07,33,16.30
2020,05,09,07,34,16.30
2020,05,09,07,35,16.40
2020,05,09,07,36,16.40
2020,05,09,07,37,16.40
2020,05,09,07,38,16.50
2020,05,09,07,39,16.60
2020,05,09,07,40,16.60
2020,05,09,07,41,16.70
2020,05,09,07,42,16.70
2020,05,09,07,43,16.80
2020,05,09,07,44,16.80
2020,05,09,07,45,16.90
2020,05,09,07,46,16.90
2020,05,09,07,47,17.00
2020,05,09,07,48,17.00
2020,05,09,07,49,17.10
2020,05,09,07,50,17.10
2020,05,09,07,51,17.20
2020,05,09,07,52,17.30
2020,05,09,07,53,17.30
2020,05,09,07,54,17.40
2020,05,09,07,55,17.50
2020,05,09,07,56,17.60
2020,05,09,07,57,17.60
2020,05,09,07,58,17.70
2020,05,09,07,59,17.70
2020,05,09,08,00,17.80
2020,05,09,08,01,17.80
2020,05,09,08,02,17.90
2020,05,09,08,03,17.90
2020,05,09,08,04,18.00
2020,05,09,08,05,18.10
2020,05,09,08,06,18.10
2020,05,09,08,07,18.10
2020,05,09,08,08,18.20
2020,05,09,08,09,18.20
2020,05,09,08,10,18.30
2020,05,09,08,11,18.30
2020,05,09,08,12,18.40
2020,05,09,08,13,18.40
2020,05,09,08,14,18.40
2020,05,09,08,15,18.50
2020,05,09,08,16,18.60
2020,05,09,08,17,18.60
2020,05,09,08,18,18.70
2020,05,09,08,19,18.70
2020,05,09,08,20,18.70
2020,05,09,08,21,18.80
2020,05,09,08,22,18.80
2020,05,09,08,23,18.80
2020,05,09,08,24,18.80
2020,05,09,08,25,18.80
2020,05,09,08,26,18.90
2020,05,09,08,27,18.90
2020,05,09,08,28,18.90
2020,05,09,08,29,18.90
2020,05,09,08,30,18.90
2020,05,09,08,31,19.00
2020,05,09,08,32,19.00
2020,05,09,08,33,19.00
2020,05,09,08,34,19.10
2020,05,09,08,35,19.10
2020,05,09,08,36,19.10
2020,05,09,08,37,19.20
2020,05,09,08,38,19.20
2020,05,09,08,39,19.20
2020,05,09,08,40,19.20
2020,05,09,08,41,19.20
2020,05,09,08,42,19.30
2020,05,09,08,43,19.30
2020,05,09,08,44,19.30
2020,05,09,08,45,19.30
2020,05,09,08,46,19.30
2020,05,09,08,47,19.40
2020,05,09,08,48,19.40
2020,05,09,08,49,19.40
2020,05,09,08,50,19.40
2020,05,09,08,51,19.40
2020,05,09,08,52,19.40
2020,05,09,08,53,19.40
2020,05,09,08,54,19.40
2020,05,09,08,55,19.50
2020,05,09,08,56,19.50
2020,05,09,08,57,19.60
2020,05,09,08,58,19.60
2020,05,09,08,59,19.70
2020,05,09,09,00,19.70
2020,05,09,09,01,19.80
2020,05,09,09,02,19.80
2020,05,09,09,03,19.80
2020,05,09,09,04,19.80
2020,05,09,09,05,19.80
2020,05,09,09,06,19.80
2020,05,09,09,07,19.90
2020,05,09,09,08,19.90
2020,05,09,09,09,20.00
2020,05,09,09,10,20.10
2020,05,09,09,11,20.10
2020,05,09,09,12,20.20
2020,05,09,09,13,20.30
2020,05,09,09,14,20.40
2020,05,09,09,15,20.40
2020,05,09,09,16,20.50
2020,05,09,09,17,20.50
2020,05,09,09,18,20.60
2020,05,09,09,19,20.70
2020,05,09,09,20,20.70
2020,05,09,09,21,20.80
2020,05,09,09,22,20.90
2020,05,09,09,23,20.90
2020,05,09,09,24,20.90
2020,05,09,09,25,21.00
2020,05,09,09,26,21.00
2020,05,09,09,27,21.00
2020,05,09,09,28,21.00
2020,05,09,09,29,21.00
2020,05,09,09,30,21.00
2020,05,09,09,31,20.90
2020,05,09,09,32,21.00
2020,05,09,09,33,21.00
2020,05,09,09,34,21.10
2020,05,09,09,35,21.10
2020,05,09,09,36,21.20
2020,05,09,09,37,21.20
2020,05,09,09,38,21.20
2020,05,09,09,39,21.20
2020,05,09,09,40,21.20
2020,05,09,09,41,21.20
2020,05,09,09,42,21.20
2020,05,09,09,43,21.20
2020,05,09,09,44,21.20
2020,05,09,09,45,21.30
2020,05,09,09,46,21.40
2020,05,09,09,47,21.40
2020,05,09,09,48,21.40
2020,05,09,09,49,21.40
2020,05,09,09,50,21.40
2020,05,09,09,51,21.40
2020,05,09,09,52,21.50
2020,05,09,09,53,21.50
2020,05,09,09,54,21.50
2020,05,09,09,55,21.50
2020,05,09,09,56,21.50
2020,05,09,09,57,21.40
2020,05,09,09,58,21.40
2020,05,09,09,59,21.50
2020,05,09,10,00,21.60
2020,05,09,10,01,21.60
2020,05,09,10,02,21.70
2020,05,09,10,03,21.70
2020,05,09,10,04,21.70
2020,05,09,10,05,21.80
2020,05,09,10,06,21.80
2020,05,09,10,07,21.80
2020,05,09,10,08,21.80
2020,05,09,10,09,21.90
2020,05,09,10,10,22.00
2020,05,09,10,11,22.00
2020,05,09,10,12,22.10
2020,05,09,10,13,22.10
2020,05,09,10,14,22.20
2020,05,09,10,15,22.20
2020,05,09,10,16,22.20
2020,05,09,10,17,22.20
2020,05,09,10,18,22.20
2020,05,09,10,19,22.20
2020,05,09,10,20,22.10
2020,05,09,10,21,22.10
2020,05,09,10,22,22.10
2020,05,09,10,23,22.10
2020,05,09,10,24,22.20
2020,05,09,10,25,22.20
2020,05,09,10,26,22.20
2020,05,09,10,27,22.30
2020,05,09,10,28,22.30
2020,05,09,10,29,22.30
2020,05,09,10,30,22.30
2020,05,09,10,31,22.30
2020,05,09,10,32,22.30
2020,05,09,10,33,22.30
2020,05,09,10,34,22.30
2020,05,09,10,35,22.40
2020,05,09,10,36,22.40
2020,05,09,10,37,22.40
2020,05,09,10,38,22.40
2020,05,09,10,39,22.40
2020,05,09,10,40,22.40
2020,05,09,10,41,22.50
2020,05,09,10,42,22.50
2020,05,09,10,43,22.70
2020,05,09,10,44,22.70
2020,05,09,10,45,22.80
2020,05,09,10,46,22.90
2020,05,09,10,47,22.90
2020,05,09,10,48,23.00
2020,05,09,10,49,23.00
2020,05,09,10,50,23.10
2020,05,09,10,51,23.10
2020,05,09,10,52,23.10
2020,05,09,10,53,23.20
2020,05,09,10,54,23.20
2020,05,09,10,55,23.20
2020,05,09,10,56,23.30
2020,05,09,10,57,23.30
2020,05,09,10,58,23.30
2020,05,09,10,59,23.30
2020,05,09,11,00,23.30
2020,05,09,11,01,23.30
2020,05,09,11,02,23.20
2020,05,09,11,03,23.20
2020,05,09,11,04,23.20
2020,05,09,11,05,23.20
2020,05,09,11,06,23.20
2020,05,09,11,07,23.20
2020,05,09,11,08,23.20
2020,05,09,11,09,23.20
2020,05,09,11,10,23.20
2020,05,09,11,11,23.20
2020,05,09,11,12,23.20
2020,05,09,11,13,23.20
2020,05,09,11,14,23.10
2020,05,09,11,15,23.10
2020,05,09,11,16,23.10
2020,05,09,11,17,23.10
2020,05,09,11,18,23.10
2020,05,09,11,19,23.20
2020,05,09,11,20,23.20
2020,05,09,11,21,23.30
2020,05,09,11,22,23.30
2020,05,09,11,23,23.40
2020,05,09,11,24,23.50
2020,05,09,11,25,23.50
2020,05,09,11,26,23.60
2020,05,09,11,27,23.60
2020,05,09,11,28,23.60
2020,05,09,11,29,23.70
2020,05,09,11,30,23.70
2020,05,09,11,31,23.70
2020,05,09,11,32,23.80
2020,05,09,11,33,23.90
2020,05,09,11,34,24.00
2020,05,09,11,35,24.00
2020,05,09,11,36,24.00
2020,05,09,11,37,24.00
2020,05,09,11,38,24.10
2020,05,09,11,39,24.10
2020,05,09,11,40,24.10
2020,05,09,11,41,24.20
2020,05,09,11,42,24.20
2020,05,09,11,43,24.20
2020,05,09,11,44,24.20
2020,05,09,11,45,24.20
2020,05,09,11,46,24.20
2020,05,09,11,47,24.20
2020,05,09,11,48,24.10
2020,05,09,11,49,24.10
2020,05,09,11,50,24.00
2020,05,09,11,51,23.90
2020,05,09,11,52,23.90
2020,05,09,11,53,23.90
2020,05,09,11,54,23.90
2020,05,09,11,55,23.80
2020,05,09,11,56,23.90
2020,05,09,11,57,23.90
2020,05,09,11,58,23.90
2020,05,09,11,59,23.90
2020,05,09,12,00,23.90
2020,05,09,12,01,23.90
2020,05,09,12,02,23.90
2020,05,09,12,03,23.90
2020,05,09,12,04,23.90
2020,05,09,12,05,23.90
2020,05,09,12,06,23.80
2020,05,09,12,07,23.80
2020,05,09,12,08,23.90
2020,05,09,12,09,23.90
2020,05,09,12,10,24.00
2020,05,09,12,11,24.00
2020,05,09,12,12,24.10
2020,05,09,12,13,24.20
2020,05,09,12,14,24.20
2020,05,09,12,15,24.30
2020,05,09,12,16,24.40
2020,05,09,12,17,24.40
2020,05,09,12,18,24.50
2020,05,09,12,19,24.50
2020,05,09,12,20,24.50
2020,05,09,12,21,24.50
2020,05,09,12,22,24.50
2020,05,09,12,23,24.50
2020,05,09,12,24,24.50
2020,05,09,12,25,24.50
2020,05,09,12,26,24.50
2020,05,09,12,27,24.50
2020,05,09,12,28,24.50
2020,05,09,12,29,24.50
2020,05,09,12,30,24.50
2020,05,09,12,31,24.50
2020,05,09,12,32,24.40
2020,05,09,12,33,24.40
2020,05,09,12,34,24.40
2020,05,09,12,35,24.40
2020,05,09,12,36,24.40
2020,05,09,12,37,24.40
2020,05,09,12,38,24.40
2020,05,09,12,39,24.40
2020,05,09,12,40,24.50
2020,05,09,12,41,24.50
2020,05,09,12,42,24.60
2020,05,09,12,43,24.60
2020,05,09,12,44,24.70
2020,05,09,12,45,24.70
2020,05,09,12,46,24.80
2020,05,09,12,47,24.80
2020,05,09,12,48,24.90
2020,05,09,12,49,24.90
2020,05,09,12,50,25.00
2020,05,09,12,51,25.10
2020,05,09,12,52,25.10
2020,05,09,12,53,25.10
2020,05,09,12,54,25.10
2020,05,09,12,55,25.10
2020,05,09,12,56,25.10
2020,05,09,12,57,25.10
2020,05,09,12,58,25.10
2020,05,09,12,59,25.10
2020,05,09,13,00,25.20
2020,05,09,13,01,25.20
2020,05,09,13,02,25.20
2020,05,09,13,03,25.30
2020,05,09,13,04,25.30
2020,05,09,13,05,25.30
2020,05,09,13,06,25.40
2020,05,09,13,07,25.40
2020,05,09,13,08,25.40
2020,05,09,13,09,25.40
2020,05,09,13,10,25.50
2020,05,09,13,11,25.50
2020,05,09,13,12,25.50
2020,05,09,13,13,25.60
2020,05,09,13,14,25.60
2020,05,09,13,15,25.60
2020,05,09,13,16,25.70
2020,05,09,13,17,25.70
2020,05,09,13,18,25.70
2020,05,09,13,19,25.70
2020,05,09,13,20,25.80
2020,05,09,13,21,25.80
2020,05,09,13,22,25.80
2020,05,09,13,23,25.80
2020,05,09,13,24,25.90
2020,05,09,13,25,25.90
2020,05,09,13,26,25.90
2020,05,09,13,27,25.90
2020,05,09,13,28,25.90
2020,05,09,13,29,25.90
2020,05,09,13,30,25.90
2020,05,09,13,31,25.90
2020,05,09,13,32,25.90
2020,05,09,13,33,25.90
2020,05,09,13,34,26.00
2020,05,09,13,35,26.10
2020,05,09,13,36,26.20
2020,05,09,13,37,26.30
2020,05,09,13,38,26.30
2020,05,09,13,39,26.20
2020,05,09,13,40,26.20
2020,05,09,13,41,26.30
2020,05,09,13,42,26.20
2020,05,09,13,43,26.20
2020,05,09,13,44,26.10
2020,05,09,13,45,26.10
2020,05,09,13,46,26.10
2020,05,09,13,47,26.20
2020,05,09,13,48,26.20
2020,05,09,13,49,26.30
2020,05,09,13,50,26.30
2020,05,09,13,51,26.40
2020,05,09,13,52,26.50
2020,05,09,13,53,26.60
2020,05,09,13,54,26.70
2020,05,09,13,55,26.80
2020,05,09,13,56,26.90
2020,05,09,13,57,26.90
2020,05,09,13,58,27.00
2020,05,09,13,59,27.00
2020,05,09,14,00,27.00
2020,05,09,14,01,26.90
2020,05,09,14,02,26.80
2020,05,09,14,03,26.80
2020,05,09,14,04,26.80
2020,05,09,14,05,26.70
2020,05,09,14,06,26.70
2020,05,09,14,07,26.70
2020,05,09,14,08,26.70
2020,05,09,14,09,26.70
2020,05,09,14,10,26.70
2020,05,09,14,11,26.70
2020,05,09,14,12,26.80
2020,05,09,14,13,26.80
2020,05,09,14,14,26.90
2020,05,09,14,15,27.00
2020,05,09,14,16,27.00
2020,05,09,14,17,27.10
2020,05,09,14,18,27.10
2020,05,09,14,19,27.10
2020,05,09,14,20,27.10
2020,05,09,14,21,27.10
2020,05,09,14,22,27.10
2020,05,09,14,23,27.10
2020,05,09,14,24,27.10
2020,05,09,14,25,27.10
2020,05,09,14,26,27.20
2020,05,09,14,27,27.30
2020,05,09,14,28,27.30
2020,05,09,14,29,27.30
2020,05,09,14,30,27.30
2020,05,09,14,31,27.20
2020,05,09,14,32,27.20
2020,05,09,14,33,27.20
2020,05,09,14,34,27.30
2020,05,09,14,35,27.20
2020,05,09,14,36,27.30
2020,05,09,14,37,27.30
2020,05,09,14,38,27.30
2020,05,09,14,39,27.30
2020,05,09,14,40,27.40
2020,05,09,14,41,27.40
2020,05,09,14,42,27.40
2020,05,09,14,43,27.50
2020,05,09,14,44,27.50
2020,05,09,14,45,27.50
2020,05,09,14,46,27.50
2020,05,09,14,47,27.50
2020,05,09,14,48,27.50
2020,05,09,14,49,27.40
2020,05,09,14,50,27.40
2020,05,09,14,51,27.30
2020,05,09,14,52,27.30
2020,05,09,14,53,27.30
2020,05,09,14,54,27.30
2020,05,09,14,55,27.20
2020,05,09,14,56,27.20
2020,05,09,14,57,27.20
2020,05,09,14,58,27.20
2020,05,09,14,59,27.20
2020,05,09,15,00,27.20
2020,05,09,15,01,27.20
2020,05,09,15,02,27.20
2020,05,09,15,03,27.20
2020,05,09,15,04,27.20
2020,05,09,15,05,27.20
2020,05,09,15,06,27.20
2020,05,09,15,07,27.20
2020,05,09,15,08,27.20
2020,05,09,15,09,27.20
2020,05,09,15,10,27.20
2020,05,09,15,11,27.10
2020,05,09,15,12,27.10
2020,05,09,15,13,27.10
2020,05,09,15,14,27.00
2020,05,09,15,15,27.00
2020,05,09,15,16,27.00
2020,05,09,15,17,27.00
2020,05,09,15,18,26.90
2020,05,09,15,19,26.90
2020,05,09,15,20,26.90
2020,05,09,15,21,26.90
2020,05,09,15,22,26.90
2020,05,09,15,23,26.80
2020,05,09,15,24,26.80
2020,05,09,15,25,26.90
2020,05,09,15,26,26.80
2020,05,09,15,27,26.80
2020,05,09,15,28,26.80
2020,05,09,15,29,26.80
2020,05,09,15,30,26.80
2020,05,09,15,31,26.80
2020,05,09,15,32,26.80
2020,05,09,15,33,26.90
2020,05,09,15,34,26.90
2020,05,09,15,35,26.90
2020,05,09,15,36,26.80
2020,05,09,15,37,26.80
2020,05,09,15,38,26.80
2020,05,09,15,39,26.70
2020,05,09,15,40,26.70
2020,05,09,15,41,26.70
2020,05,09,15,42,26.60
2020,05,09,15,43,26.60
2020,05,09,15,44,26.60
2020,05,09,15,45,26.60
2020,05,09,15,46,26.60
2020,05,09,15,47,26.60
2020,05,09,15,48,26.60
2020,05,09,15,49,26.60
2020,05,09,15,50,26.50
2020,05,09,15,51,26.50
2020,05,09,15,52,26.50
2020,05,09,15,53,26.60
2020,05,09,15,54,26.60
2020,05,09,15,55,26.70
2020,05,09,15,56,26.70
2020,05,09,15,57,26.80
2020,05,09,15,58,26.80
2020,05,09,15,59,26.90
2020,05,09,16,00,26.90
2020,05,09,16,01,26.90
2020,05,09,16,02,26.90
2020,05,09,16,03,26.90
2020,05,09,16,04,26.90
2020,05,09,16,05,26.90
2020,05,09,16,06,26.90
2020,05,09,16,07,26.90
2020,05,09,16,08,26.90
2020,05,09,16,09,26.90
2020,05,09,16,10,26.90
2020,05,09,16,11,26.90
2020,05,09,16,12,26.90
2020,05,09,16,13,27.00
2020,05,09,16,14,27.00
2020,05,09,16,15,27.00
2020,05,09,16,16,27.00
2020,05,09,16,17,27.00
2020,05,09,16,18,27.10
2020,05,09,16,19,27.20
2020,05,09,16,20,27.30
2020,05,09,16,21,27.40
2020,05,09,16,22,27.40
2020,05,09,16,23,27.50
2020,05,09,16,24,27.60
2020,05,09,16,25,27.60
2020,05,09,16,26,27.60
2020,05,09,16,27,27.60
2020,05,09,16,28,27.60
2020,05,09,16,29,27.60
2020,05,09,16,30,27.70
2020,05,09,16,31,27.70
2020,05,09,16,32,27.70
2020,05,09,16,33,27.80
2020,05,09,16,34,27.80
2020,05,09,16,35,27.90
2020,05,09,16,36,28.00
2020,05,09,16,37,28.10
2020,05,09,16,38,28.10
2020,05,09,16,39,28.20
2020,05,09,16,40,28.20
2020,05,09,16,41,28.30
2020,05,09,16,42,28.30
2020,05,09,16,43,28.30
2020,05,09,16,44,28.30
2020,05,09,16,45,28.20
2020,05,09,16,46,28.20
2020,05,09,16,47,28.20
2020,05,09,16,48,28.30
2020,05,09,16,49,28.30
2020,05,09,16,50,28.30
2020,05,09,16,51,28.30
2020,05,09,16,52,28.20
2020,05,09,16,53,28.10
2020,05,09,16,54,28.10
2020,05,09,16,55,28.10
2020,05,09,16,56,28.00
2020,05,09,16,57,28.00
2020,05,09,16,58,28.00
2020,05,09,16,59,28.00
2020,05,09,17,00,27.90
2020,05,09,17,01,27.90
2020,05,09,17,02,27.80
2020,05,09,17,03,27.80
2020,05,09,17,04,27.90
2020,05,09,17,05,27.90
2020,05,09,17,06,27.90
2020,05,09,17,07,27.90
2020,05,09,17,08,27.90
2020,05,09,17,09,27.90
2020,05,09,17,10,27.90
2020,05,09,17,11,27.90
2020,05,09,17,12,27.80
2020,05,09,17,13,27.70
2020,05,09,17,14,27.70
2020,05,09,17,15,27.70
2020,05,09,17,16,27.70
2020,05,09,17,17,27.70
2020,05,09,17,18,27.60
2020,05,09,17,19,27.60